Change the Weather History Date:

Wednesday, May 21, 2014

  Actual Average Record
Temperature  
Mean Temperature 62 °F 58 °F  
Max Temperature 76 °F 75 °F 90 °F (1948)
Min Temperature 47 °F 41 °F 24 °F (1974)
Degree Days  
Heating Degree Days 3 7  
Month to date heating degree days 249 210  
Since 1 July heating degree days 6722 6507  
Cooling Degree Days 0 0  
Month to date cooling degree days 0 0  
Year to date cooling degree days 0 0  
Growing Degree Days 10 (Base 50)    
Moisture  
Dew Point 30 °F    
Average Humidity 39    
Maximum Humidity 61    
Minimum Humidity 16    
Precipitation  
Precipitation T in 0.05 in 0.49 in (1952)
Month to date precipitation 1.19 1.03  
Year to date precipitation 4.02 4.94  
Sea Level Pressure  
Sea Level Pressure 29.86 in    
Wind  
Wind Speed 7 mph (SE)    
Max Wind Speed 31 mph    
Max Gust Speed 37 mph    
Visibility 10 miles    
Events      
T = Trace of Precipitation, MM = Missing Value Source: NWS Daily Summary

Daily Weather History Graph

Daily Weather History Graph

Search for Another Location

Airport or City:

Trip Planner

Search our weather history database for the weather conditions in past years. The results will help you decide how hot, cold, wet, or windy it might be!

Date:

Astronomy

May. 21, 2014 Rise Set
Actual Time 5:51 AM MDT 8:23 PM MDT
Civil Twilight 5:20 AM MDT 8:54 PM MDT
Nautical Twilight 4:42 AM MDT 9:33 PM MDT
Astronomical Twilight 3:59 AM MDT 10:16 PM MDT
Moon 1:34 AM MDT (5/21) 1:10 PM MDT (5/21)
Length of Visible Light 15h 33m
Length of Day
14h 31m
Waning Gibbous, 48% of the Moon is Illuminated
May 21
Waning Gibbous
May 28
New
Jun 5
First Quarter
Jun 12
Full
Jun 19
Last Quarter

Hourly Weather History & Observations

Time (MDT) Temp. Dew Point Humidity Pressure Visibility Wind Dir Wind Speed Gust Speed Precip Events Conditions
12:53 AM 54.0 °F 26.1 °F 34% 29.78 in 10.0 mi ESE 3.5 mph - N/A   Clear
1:53 AM 53.1 °F 27.0 °F 37% 29.78 in 10.0 mi ENE 4.6 mph - N/A   Clear
2:53 AM 51.1 °F 26.1 °F 38% 29.79 in 10.0 mi ESE 4.6 mph - N/A   Clear
3:53 AM 48.9 °F 28.9 °F 46% 29.80 in 10.0 mi North 4.6 mph - N/A   Clear
4:53 AM 48.9 °F 28.9 °F 46% 29.80 in 10.0 mi Calm Calm - N/A   Clear
5:53 AM 48.0 °F 30.9 °F 52% 29.83 in 10.0 mi SSE 3.5 mph - N/A   Clear
6:53 AM 48.9 °F 35.1 °F 59% 29.84 in 10.0 mi WSW 6.9 mph - N/A   Mostly Cloudy
7:53 AM 54.0 °F 33.1 °F 45% 29.84 in 10.0 mi ESE 3.5 mph - N/A   Scattered Clouds
9:53 AM 72.0 °F 23.0 °F 16% 29.83 in 10.0 mi SSE 10.4 mph 32.2 mph N/A   Partly Cloudy
10:53 AM 72.0 °F 23.0 °F 16% 29.83 in 10.0 mi SSW 11.5 mph - N/A   Mostly Cloudy
12:53 PM 73.0 °F 28.0 °F 19% 29.88 in 10.0 mi SSE 17.3 mph 25.3 mph N/A   Partly Cloudy
1:53 PM 73.0 °F 25.0 °F 17% 29.85 in 10.0 mi SE 8.1 mph 18.4 mph N/A   Partly Cloudy
2:53 PM 73.0 °F 28.0 °F 19% 29.86 in 10.0 mi WSW 16.1 mph 36.8 mph N/A   Mostly Cloudy
3:53 PM 71.1 °F 27.0 °F 19% 29.87 in 10.0 mi WNW 11.5 mph - 0.00 in   Clear
4:53 PM 71.1 °F 25.0 °F 18% 29.88 in 10.0 mi West 12.7 mph - N/A   Mostly Cloudy
5:53 PM 70.0 °F 30.0 °F 23% 29.90 in 10.0 mi South 13.8 mph 18.4 mph N/A   Mostly Cloudy
6:53 PM 68.0 °F 32.0 °F 26% 29.90 in 10.0 mi ENE 8.1 mph - N/A   Clear
7:53 PM 62.1 °F 36.0 °F 38% 29.91 in 10.0 mi SSW 5.8 mph - N/A   Clear
8:53 PM 57.0 °F 36.0 °F 45% 29.92 in 10.0 mi East 5.8 mph - N/A   Partly Cloudy
9:53 PM 55.0 °F 35.1 °F 47% 29.90 in 10.0 mi Variable 4.6 mph - N/A   Clear
10:53 PM 54.0 °F 36.0 °F 51% 29.93 in 10.0 mi ENE 4.6 mph - N/A   Clear
11:53 PM 52.0 °F 37.0 °F 57% 29.94 in 10.0 mi Calm Calm - N/A   Clear